Flag for U.S.A. Weather past 2 weeks in San Francisco, California, U.S.A.

Now
71 °F

Passing clouds.


Feels Like: 76 °F
Forecast: 62 / 72 °F
Wind: 5 mph from West

Location: San Francisco International Airport

Current Time: Sep 1, 2015 at 12:01:14 PM

Latest Report: Sep 1, 2015 at 10:56 AM


Visibility: 10 mi

Pressure: 29.89 "Hg

Humidity: 57%

Dew point: 55 °F

Location of San FranciscoLocation

Historic Weather in San Francisco — Graph

°F

San Francisco temperature yesterday

Maximum temperature yesterday: 75 °F (at 1:56 PM)
Minimum temperature yesterday: 60 °F (at 3:56 AM)
Average temperature yesterday: 66 °F

Past Weeks' High & Low Weather Summary

 TemperatureHumidityPressure
High92 °F (Aug 28, 1:56 PM)91% (Aug 28, 8:56 PM)30.06 "Hg (Aug 28, 8:56 PM)
Low58 °F (Aug 25, 5:56 AM)27% (Aug 28, 1:56 PM)29.81 "Hg (Aug 17, 5:56 PM)
Average66 °F72%29.95 "Hg
* Reported Aug 17 10:56 AM — Sep 1 10:56 AM, San Francisco, Weather by CustomWeather, © 2015

Note: Actual official high and low records may vary slightly from our data, if they occured in-between our weather recording intervals... More about our weather records

Advertising

San Francisco weather history for previous 24 hours

 ConditionsComfort  
Time TempWeatherWind HumidityBarometerVisibility
10:56 AM
Tue, Sep 1
71 °FPassing clouds.5 mph57%29.89 "Hg10 mi
9:56 AM68 °FPassing clouds.3 mph68%29.89 "Hg10 mi
8:56 AM66 °FPassing clouds.No wind70%29.88 "Hg10 mi
7:56 AM62 °FPassing clouds.No wind78%29.88 "Hg10 mi
6:56 AM60 °FPassing clouds.No wind83%29.88 "Hg10 mi
5:56 AM60 °FPassing clouds.No wind83%29.87 "Hg10 mi
4:56 AM60 °FPassing clouds.No wind80%29.86 "Hg10 mi
3:56 AM60 °FPassing clouds.3 mph83%29.86 "Hg10 mi
2:56 AM61 °FPassing clouds.No wind83%29.87 "Hg10 mi
1:56 AM61 °FPassing clouds.3 mph81%29.87 "Hg10 mi
12:56 AM61 °FPassing clouds.5 mph83%29.88 "Hg10 mi
11:56 PM
Mon, Aug 31
62 °FPassing clouds.5 mph80%29.88 "Hg10 mi
10:56 PM63 °FPassing clouds.7 mph78%29.88 "Hg10 mi
9:56 PM63 °FPassing clouds.13 mph78%29.89 "Hg10 mi
7:56 PM64 °FPassing clouds.14 mph73%29.87 "Hg10 mi
6:56 PM65 °FPassing clouds.18 mph73%29.87 "Hg10 mi
5:56 PM68 °FPassing clouds.23 mph65%29.87 "Hg10 mi
4:56 PM71 °FPassing clouds.22 mph61%29.88 "Hg10 mi
3:56 PM72 °FPassing clouds.18 mph59%29.88 "Hg10 mi
1:56 PM75 °FPassing clouds.17 mph55%29.91 "Hg10 mi
12:56 PM74 °FPassing clouds.13 mph57%29.92 "Hg10 mi
Weather by CustomWeather, © 2015

See weather overviewHow to use our weather pages